QPF
0.00 0.00 0.00 0.00 0.00 0.00 0.01 0.00 0.00 0.00 0.00 0.00 0.00 0.00 0.00 0.00 0.00 0.00 0.00 0.00 0.00 0.00 0.00 0.00 0.00 0.00 0.00 0.00 0.00 0.00 0.00 0.00 0.00 0.00 0.00 0.00 0.00 0.00 0.00 0.00 0.00 0.00 0.00 0.00 0.00 0.00 0.00 0.01 0.01
0.00 0.00 0.00 0.00 0.00 0.00 0.00 0.00 0.00 0.00 0.00 0.00 0.00 0.00 0.00 0.00 0.00 0.00 0.00 0.00 0.00 0.00 0.00 0.00 0.00 0.00 0.00 0.00 0.00 0.00 0.00 0.00 0.00 0.00 0.00 0.00 0.00 0.00 0.00 0.00 0.00 0.00 0.00 0.00 0.00 0.00 0.00 0.00 0.00
0.00 0.00 0.00 0.00 0.01 0.00 0.00 0.00 0.00 0.00 0.00 0.01 0.00 0.00 0.00 0.00 0.00 0.00 0.00 0.00 0.00 0.00 0.00 0.00 0.00 0.00 0.00 0.00 0.00 0.00 0.00 0.00 0.00 0.00 0.00 0.00 0.00 0.00 0.00 0.01 0.00 0.01 0.00 0.00 0.00 0.00 0.00 0.00 0.00
0.00 0.00 0.00 0.00 0.00 0.00 0.00 0.00 0.00 0.00 0.00 0.00 0.01 0.00 0.00 0.00 0.00 0.00 0.00 0.00 0.00 0.00 0.00 0.00 0.00 0.00 0.00 0.00 0.00 0.00 0.00 0.00 0.00 0.00 0.00 0.00 0.00 0.00 0.01 0.01 0.01 0.01 0.01 0.01 0.01 0.00 0.00 0.00 0.00
0.00 0.00 0.00 0.00 0.00 0.00 0.00 0.00 0.00 0.00 0.00 0.00 0.00 0.00 0.00 0.00 0.00 0.00 0.00 0.00 0.00 0.00 0.00 0.00 0.01 0.01 0.01 0.01 0.01 0.01 0.01 0.01 0.01 0.01 0.01 0.01 0.01 0.01 0.01 0.01 0.01 0.01 0.01 0.01 0.01 0.01 0.00 0.00 0.00
0.00 0.00 0.00 0.00 0.00 0.00 0.00 0.00 0.00 0.00 0.00 0.00 0.00 0.00 0.00 0.00 0.00 0.00 0.00 0.00 0.00 0.00 0.00 0.01 0.01 0.01 0.01 0.01 0.01 0.01 0.01 0.01 0.01 0.01 0.01 0.01 0.02 0.02 0.02 0.03 0.03 0.03 0.03 0.02 0.01 0.01 0.01 0.00 0.00
0.00 0.00 0.00 0.00 0.00 0.00 0.00 0.00 0.00 0.00 0.00 0.00 0.00 0.00 0.00 0.00 0.00 0.00 0.00 0.01 0.01 0.00 0.01 0.01 0.02 0.01 0.02 0.02 0.02 0.02 0.02 0.02 0.02 0.03 0.03 0.03 0.03 0.03 0.03 0.04 0.04 0.04 0.04 0.04 0.03 0.02 0.01 0.01 0.00
0.00 0.00 0.00 0.00 0.00 0.00 0.00 0.00 0.00 0.00 0.00 0.00 0.00 0.00 0.00 0.00 0.00 0.00 0.00 0.00 0.01 0.01 0.01 0.01 0.02 0.03 0.03 0.03 0.04 0.04 0.04 0.05 0.04 0.04 0.04 0.04 0.04 0.04 0.05 0.04 0.04 0.04 0.05 0.05 0.04 0.03 0.03 0.02 0.01
0.00 0.00 0.00 0.00 0.00 0.00 0.00 0.00 0.00 0.00 0.00 0.00 0.00 0.00 0.00 0.00 0.00 0.00 0.00 0.00 0.00 0.01 0.01 0.01 0.02 0.03 0.04 0.04 0.05 0.06 0.07 0.08 0.08 0.08 0.07 0.06 0.07 0.07 0.06 0.05 0.04 0.05 0.07 0.07 0.05 0.05 0.05 0.04 0.02
0.00 0.00 0.00 0.00 0.00 0.00 0.00 0.00 0.00 0.00 0.00 0.00 0.00 0.00 0.00 0.00 0.00 0.01 0.00 0.00 0.00 0.01 0.01 0.01 0.02 0.02 0.03 0.03 0.06 0.10 0.11 0.12 0.10 0.11 0.10 0.12 0.11 0.10 0.07 0.06 0.06 0.07 0.08 0.09 0.09 0.09 0.09 0.08 0.05
0.00 0.00 0.00 0.00 0.00 0.00 0.00 0.00 0.00 0.00 0.00 0.00 0.00 0.00 0.00 0.00 0.01 0.01 0.00 0.01 0.01 0.00 0.01 0.01 0.02 0.03 0.04 0.05 0.07 0.10 0.13 0.14 0.13 0.13 0.14 0.14 0.14 0.11 0.10 0.10 0.09 0.10 0.10 0.12 0.15 0.14 0.12 0.11 0.10
0.00 0.00 0.00 0.00 0.00 0.00 0.00 0.00 0.00 0.00 0.00 0.00 0.00 0.00 0.00 0.00 0.01 0.01 0.01 0.01 0.01 0.01 0.01 0.01 0.02 0.02 0.04 0.05 0.08 0.11 0.12 0.14 0.13 0.15 0.18 0.18 0.15 0.12 0.12 0.11 0.12 0.12 0.13 0.15 0.16 0.16 0.16 0.17 0.16
0.00 0.00 0.00 0.00 0.00 0.00 0.00 0.00 0.00 0.00 0.00 0.00 0.01 0.01 0.01 0.01 0.02 0.02 0.03 0.03 0.03 0.04 0.05 0.04 0.03 0.05 0.06 0.09 0.13 0.12 0.11 0.13 0.18 0.20 0.19 0.21 0.21 0.16 0.14 0.15 0.16 0.13 0.12 0.13 0.15 0.16 0.18 0.20 0.21
0.00 0.00 0.00 0.00 0.00 0.00 0.00 0.00 0.00 0.00 0.00 0.00 0.01 0.02 0.03 0.03 0.03 0.04 0.07 0.06 0.07 0.08 0.10 0.10 0.06 0.06 0.08 0.14 0.18 0.14 0.10 0.12 0.12 0.14 0.15 0.22 0.23 0.21 0.18 0.16 0.16 0.14 0.13 0.12 0.13 0.14 0.16 0.19 0.20
0.00 0.00 0.00 0.00 0.00 0.00 0.00 0.00 0.00 0.00 0.01 0.01 0.01 0.02 0.02 0.03 0.03 0.04 0.06 0.07 0.09 0.12 0.15 0.12 0.09 0.11 0.12 0.19 0.21 0.15 0.11 0.11 0.11 0.12 0.13 0.16 0.22 0.24 0.21 0.19 0.16 0.13 0.12 0.11 0.09 0.10 0.12 0.12 0.13
0.00 0.00 0.00 0.00 0.00 0.00 0.00 0.01 0.00 0.01 0.01 0.01 0.02 0.02 0.03 0.03 0.03 0.04 0.05 0.06 0.09 0.12 0.14 0.11 0.08 0.10 0.13 0.14 0.12 0.11 0.11 0.10 0.10 0.11 0.11 0.11 0.15 0.16 0.15 0.13 0.13 0.12 0.13 0.11 0.09 0.08 0.10 0.12 0.14
0.00 0.00 0.00 0.01 0.00 0.00 0.01 0.01 0.01 0.01 0.02 0.02 0.02 0.03 0.03 0.03 0.03 0.04 0.04 0.04 0.06 0.08 0.07 0.05 0.06 0.06 0.07 0.08 0.09 0.12 0.10 0.08 0.06 0.05 0.04 0.04 0.05 0.07 0.07 0.08 0.09 0.10 0.10 0.09 0.08 0.09 0.10 0.11 0.12
0.00 0.00 0.00 0.00 0.00 0.00 0.01 0.01 0.01 0.02 0.03 0.03 0.04 0.03 0.03 0.03 0.02 0.02 0.01 0.02 0.03 0.04 0.04 0.04 0.04 0.04 0.03 0.04 0.05 0.05 0.05 0.04 0.04 0.03 0.02 0.02 0.02 0.02 0.03 0.05 0.05 0.07 0.07 0.07 0.07 0.07 0.08 0.09 0.11
0.00 0.00 0.01 0.01 0.01 0.01 0.01 0.02 0.02 0.04 0.04 0.05 0.05 0.03 0.02 0.02 0.01 0.01 0.01 0.01 0.01 0.01 0.03 0.05 0.07 0.03 0.02 0.02 0.02 0.02 0.02 0.02 0.02 0.01 0.01 0.00 0.01 0.01 0.01 0.02 0.02 0.03 0.04 0.04 0.05 0.06 0.06 0.07 0.08
0.00 0.01 0.01 0.00 0.00 0.00 0.01 0.03 0.04 0.05 0.05 0.06 0.05 0.03 0.02 0.01 0.01 0.01 0.01 0.01 0.02 0.01 0.03 0.07 0.06 0.02 0.01 0.01 0.00 0.01 0.01 0.01 0.01 0.01 0.01 0.00 0.00 0.00 0.01 0.01 0.02 0.01 0.02 0.02 0.03 0.04 0.05 0.05 0.06
0.00 0.01 0.01 0.00 0.00 0.01 0.02 0.04 0.04 0.04 0.04 0.05 0.05 0.03 0.03 0.02 0.02 0.02 0.01 0.02 0.02 0.02 0.03 0.05 0.02 0.01 0.01 0.01 0.01 0.01 0.01 0.01 0.00 0.00 0.00 0.00 0.00 0.00 0.00 0.01 0.01 0.01 0.01 0.01 0.02 0.02 0.03 0.04 0.04
0.00 0.00 0.00 0.01 0.01 0.02 0.02 0.04 0.04 0.03 0.03 0.04 0.05 0.03 0.02 0.03 0.02 0.02 0.01 0.01 0.01 0.01 0.01 0.01 0.00 0.00 0.00 0.00 0.00 0.01 0.01 0.00 0.00 0.00 0.00 0.00 0.00 0.00 0.00 0.00 0.01 0.01 0.01 0.01 0.01 0.01 0.02 0.03 0.03
0.00 0.00 0.00 0.00 0.00 0.01 0.01 0.03 0.03 0.03 0.03 0.03 0.02 0.01 0.02 0.02 0.01 0.01 0.01 0.01 0.01 0.01 0.01 0.01 0.01 0.01 0.00 0.00 0.00 0.01 0.00 0.00 0.00 0.00 0.00 0.00 0.00 0.00 0.00 0.00 0.00 0.01 0.01 0.01 0.02 0.02 0.02 0.03 0.03
0.00 0.01 0.01 0.01 0.01 0.02 0.01 0.01 0.02 0.02 0.02 0.02 0.01 0.01 0.01 0.02 0.01 0.01 0.00 0.00 0.01 0.01 0.01 0.01 0.01 0.01 0.00 0.00 0.01 0.01 0.01 0.01 0.01 0.01 0.00 0.00 0.00 0.00 0.00 0.00 0.01 0.01 0.01 0.02 0.02 0.02 0.02 0.03 0.05
0.01 0.01 0.02 0.02 0.02 0.02 0.00 0.00 0.01 0.00 0.00 0.01 0.01 0.00 0.01 0.01 0.01 0.00 0.00 0.00 0.00 0.01 0.01 0.01 0.01 0.01 0.01 0.01 0.01 0.01 0.01 0.01 0.01 0.01 0.01 0.01 0.01 0.01 0.00 0.00 0.01 0.01 0.01 0.01 0.02 0.02 0.01 0.02 0.03
0.00 0.01 0.02 0.02 0.02 0.02 0.01 0.01 0.00 0.00 0.00 0.00 0.00 0.00 0.00 0.00 0.00 0.00 0.00 0.00 0.00 0.00 0.00 0.00 0.01 0.01 0.01 0.00 0.00 0.01 0.01 0.00 0.00 0.00 0.00 0.00 0.00 0.00 0.00 0.00 0.01 0.01 0.02 0.01 0.01 0.01 0.02 0.02 0.02
0.00 0.00 0.00 0.01 0.00 0.01 0.01 0.00 0.00 0.00 0.00 0.00 0.00 0.00 0.00 0.00 0.00 0.00 0.00 0.00 0.00 0.00 0.00 0.00 0.00 0.00 0.00 0.00 0.00 0.00 0.00 0.00 0.00 0.00 0.00 0.00 0.00 0.00 0.00 0.00 0.01 0.01 0.01 0.01 0.02 0.01 0.01 0.01 0.01
0.00 0.00 0.00 0.00 0.01 0.00 0.00 0.00 0.00 0.00 0.00 0.00 0.00 0.00 0.00 0.00 0.00 0.00 0.00 0.00 0.00 0.00 0.00 0.00 0.00 0.00 0.00 0.00 0.00 0.00 0.00 0.00 0.00 0.00 0.00 0.00 0.00 0.00 0.00 0.00 0.00 0.00 0.01 0.01 0.01 0.01 0.01 0.01 0.01
0.00 0.00 0.00 0.00 0.00 0.00 0.00 0.00 0.00 0.00 0.00 0.00 0.00 0.00 0.00 0.00 0.00 0.00 0.00 0.00 0.00 0.00 0.00 0.00 0.00 0.00 0.00 0.00 0.00 0.00 0.00 0.00 0.00 0.00 0.00 0.00 0.00 0.00 0.00 0.00 0.00 0.00 0.00 0.01 0.01 0.01 0.01 0.01 0.01
0.00 0.00 0.00 0.00 0.00 0.00 0.00 0.00 0.00 0.00 0.00 0.00 0.00 0.00 0.00 0.00 0.00 0.00 0.00 0.00 0.00 0.00 0.00 0.00 0.00 0.00 0.00 0.00 0.00 0.00 0.00 0.00 0.00 0.00 0.00 0.00 0.00 0.00 0.00 0.00 0.00 0.00 0.00 0.00 0.01 0.00 0.01 0.01 0.01
MSLP
1012.18 1012.53 1012.89 1013.17 1013.27 1013.15 1012.80 1012.25 1011.58 1010.89 1010.28 1009.83 1009.56 1009.46 1009.49 1009.60 1009.72 1009.83 1009.91 1010.01 1010.15 1010.39 1010.75 1011.22 1011.79 1012.37 1012.90 1013.34 1013.65 1013.85 1013.95 1014.04 1014.16 1014.36 1014.65 1015.02 1015.43 1015.82 1016.14 1016.36 1016.48 1016.52 1016.52 1016.52 1016.56 1016.64 1016.77 1016.92 1017.06
1012.17 1012.59 1012.98 1013.25 1013.31 1013.11 1012.67 1012.02 1011.26 1010.50 1009.84 1009.36 1009.09 1009.02 1009.09 1009.25 1009.42 1009.58 1009.72 1009.86 1010.04 1010.32 1010.72 1011.24 1011.85 1012.49 1013.08 1013.58 1013.95 1014.20 1014.36 1014.47 1014.61 1014.81 1015.08 1015.40 1015.75 1016.07 1016.33 1016.49 1016.56 1016.58 1016.58 1016.60 1016.68 1016.81 1016.99 1017.17 1017.33
1012.20 1012.66 1013.06 1013.30 1013.30 1013.04 1012.51 1011.80 1010.99 1010.19 1009.53 1009.06 1008.81 1008.77 1008.88 1009.08 1009.29 1009.48 1009.64 1009.80 1010.01 1010.31 1010.74 1011.29 1011.93 1012.61 1013.25 1013.81 1014.24 1014.54 1014.75 1014.90 1015.06 1015.25 1015.49 1015.77 1016.06 1016.32 1016.51 1016.62 1016.66 1016.66 1016.67 1016.72 1016.84 1017.01 1017.23 1017.43 1017.59
1012.30 1012.77 1013.14 1013.33 1013.27 1012.93 1012.36 1011.61 1010.79 1010.01 1009.38 1008.96 1008.76 1008.76 1008.90 1009.12 1009.35 1009.55 1009.71 1009.88 1010.10 1010.40 1010.83 1011.39 1012.05 1012.74 1013.42 1014.01 1014.48 1014.82 1015.06 1015.25 1015.42 1015.61 1015.83 1016.08 1016.32 1016.53 1016.67 1016.75 1016.77 1016.77 1016.80 1016.87 1017.02 1017.22 1017.46 1017.67 1017.82
1012.46 1012.91 1013.22 1013.33 1013.20 1012.81 1012.21 1011.46 1010.68 1009.97 1009.41 1009.06 1008.92 1008.97 1009.14 1009.37 1009.60 1009.79 1009.95 1010.10 1010.30 1010.60 1011.02 1011.57 1012.22 1012.91 1013.58 1014.18 1014.65 1015.01 1015.27 1015.46 1015.64 1015.82 1016.03 1016.26 1016.48 1016.66 1016.78 1016.85 1016.87 1016.89 1016.93 1017.03 1017.19 1017.41 1017.64 1017.84 1017.97
1012.67 1013.05 1013.28 1013.31 1013.10 1012.67 1012.07 1011.37 1010.67 1010.05 1009.60 1009.34 1009.27 1009.37 1009.56 1009.78 1010.00 1010.16 1010.30 1010.44 1010.63 1010.91 1011.31 1011.84 1012.46 1013.12 1013.76 1014.32 1014.78 1015.11 1015.36 1015.54 1015.71 1015.88 1016.08 1016.30 1016.51 1016.68 1016.81 1016.89 1016.93 1016.97 1017.03 1017.14 1017.31 1017.52 1017.74 1017.92 1018.02
1012.90 1013.19 1013.32 1013.25 1012.98 1012.53 1011.95 1011.32 1010.72 1010.22 1009.88 1009.72 1009.73 1009.86 1010.06 1010.28 1010.47 1010.61 1010.72 1010.85 1011.02 1011.29 1011.67 1012.17 1012.75 1013.37 1013.95 1014.46 1014.86 1015.15 1015.35 1015.51 1015.65 1015.81 1016.00 1016.21 1016.42 1016.61 1016.76 1016.86 1016.92 1016.98 1017.05 1017.17 1017.33 1017.53 1017.72 1017.87 1017.95
1013.09 1013.28 1013.30 1013.15 1012.83 1012.37 1011.84 1011.30 1010.82 1010.44 1010.22 1010.15 1010.21 1010.36 1010.56 1010.76 1010.92 1011.05 1011.15 1011.26 1011.44 1011.70 1012.07 1012.54 1013.09 1013.64 1014.16 1014.60 1014.93 1015.16 1015.31 1015.42 1015.53 1015.66 1015.84 1016.05 1016.26 1016.47 1016.63 1016.75 1016.84 1016.91 1016.99 1017.10 1017.24 1017.40 1017.56 1017.69 1017.75
1013.22 1013.29 1013.22 1012.99 1012.64 1012.21 1011.75 1011.31 1010.94 1010.68 1010.56 1010.56 1010.66 1010.82 1011.00 1011.18 1011.32 1011.43 1011.53 1011.65 1011.84 1012.11 1012.48 1012.93 1013.44 1013.94 1014.39 1014.75 1015.01 1015.17 1015.27 1015.33 1015.40 1015.50 1015.66 1015.86 1016.08 1016.28 1016.46 1016.60 1016.69 1016.77 1016.84 1016.93 1017.05 1017.18 1017.31 1017.41 1017.46
1013.23 1013.22 1013.06 1012.79 1012.44 1012.05 1011.67 1011.34 1011.08 1010.93 1010.88 1010.93 1011.04 1011.20 1011.36 1011.50 1011.62 1011.72 1011.83 1011.98 1012.19 1012.48 1012.86 1013.31 1013.78 1014.23 1014.62 1014.92 1015.12 1015.22 1015.26 1015.27 1015.31 1015.38 1015.51 1015.69 1015.90 1016.10 1016.27 1016.41 1016.50 1016.57 1016.63 1016.69 1016.78 1016.88 1016.98 1017.07 1017.12
1013.14 1013.05 1012.84 1012.56 1012.24 1011.92 1011.64 1011.42 1011.27 1011.20 1011.21 1011.28 1011.39 1011.51 1011.64 1011.75 1011.85 1011.96 1012.08 1012.26 1012.50 1012.82 1013.20 1013.64 1014.08 1014.50 1014.84 1015.09 1015.23 1015.29 1015.29 1015.27 1015.27 1015.32 1015.42 1015.57 1015.75 1015.94 1016.09 1016.21 1016.29 1016.34 1016.38 1016.42 1016.49 1016.56 1016.65 1016.73 1016.78
1012.96 1012.81 1012.59 1012.34 1012.08 1011.86 1011.69 1011.58 1011.53 1011.54 1011.58 1011.65 1011.74 1011.82 1011.90 1011.98 1012.06 1012.16 1012.31 1012.50 1012.77 1013.10 1013.49 1013.91 1014.33 1014.71 1015.01 1015.22 1015.33 1015.36 1015.33 1015.29 1015.27 1015.29 1015.37 1015.49 1015.64 1015.79 1015.92 1016.02 1016.08 1016.11 1016.13 1016.16 1016.20 1016.27 1016.35 1016.43 1016.49
1012.74 1012.57 1012.37 1012.17 1012.02 1011.91 1011.87 1011.87 1011.92 1011.98 1012.04 1012.10 1012.15 1012.19 1012.22 1012.25 1012.31 1012.41 1012.55 1012.75 1013.02 1013.35 1013.73 1014.13 1014.51 1014.85 1015.12 1015.29 1015.38 1015.39 1015.36 1015.30 1015.27 1015.27 1015.32 1015.41 1015.53 1015.64 1015.74 1015.82 1015.86 1015.88 1015.89 1015.91 1015.95 1016.02 1016.10 1016.18 1016.25
1012.53 1012.38 1012.23 1012.12 1012.08 1012.11 1012.20 1012.32 1012.45 1012.56 1012.63 1012.67 1012.68 1012.67 1012.65 1012.64 1012.66 1012.73 1012.86 1013.05 1013.30 1013.60 1013.94 1014.29 1014.62 1014.92 1015.14 1015.29 1015.36 1015.37 1015.33 1015.27 1015.23 1015.21 1015.24 1015.30 1015.38 1015.47 1015.55 1015.60 1015.63 1015.65 1015.66 1015.69 1015.74 1015.82 1015.91 1016.00 1016.07
1012.40 1012.28 1012.20 1012.21 1012.30 1012.47 1012.69 1012.92 1013.12 1013.27 1013.36 1013.37 1013.34 1013.27 1013.20 1013.15 1013.13 1013.17 1013.26 1013.41 1013.61 1013.86 1014.13 1014.42 1014.69 1014.93 1015.11 1015.23 1015.29 1015.29 1015.25 1015.19 1015.13 1015.10 1015.10 1015.13 1015.19 1015.25 1015.31 1015.36 1015.39 1015.42 1015.44 1015.49 1015.56 1015.64 1015.74 1015.84 1015.91
1012.38 1012.30 1012.32 1012.43 1012.66 1012.96 1013.30 1013.63 1013.90 1014.08 1014.16 1014.16 1014.09 1013.98 1013.86 1013.76 1013.70 1013.69 1013.74 1013.83 1013.97 1014.15 1014.34 1014.55 1014.75 1014.92 1015.06 1015.15 1015.19 1015.18 1015.13 1015.06 1014.99 1014.94 1014.92 1014.92 1014.95 1015.00 1015.05 1015.10 1015.14 1015.19 1015.23 1015.30 1015.38 1015.48 1015.59 1015.68 1015.74
1012.46 1012.45 1012.55 1012.78 1013.13 1013.55 1013.99 1014.39 1014.71 1014.90 1014.98 1014.95 1014.84 1014.69 1014.54 1014.40 1014.31 1014.26 1014.26 1014.30 1014.37 1014.46 1014.58 1014.70 1014.83 1014.95 1015.04 1015.10 1015.12 1015.09 1015.03 1014.95 1014.86 1014.79 1014.73 1014.71 1014.72 1014.75 1014.80 1014.86 1014.91 1014.97 1015.04 1015.12 1015.21 1015.32 1015.42 1015.51 1015.55
1012.61 1012.67 1012.87 1013.20 1013.65 1014.16 1014.67 1015.11 1015.45 1015.64 1015.70 1015.64 1015.50 1015.32 1015.14 1014.99 1014.87 1014.79 1014.76 1014.75 1014.77 1014.80 1014.85 1014.91 1014.98 1015.04 1015.10 1015.13 1015.13 1015.09 1015.02 1014.91 1014.80 1014.69 1014.61 1014.56 1014.54 1014.56 1014.61 1014.67 1014.73 1014.81 1014.88 1014.96 1015.05 1015.15 1015.24 1015.31 1015.33
1012.80 1012.93 1013.21 1013.63 1014.15 1014.72 1015.26 1015.71 1016.03 1016.20 1016.22 1016.13 1015.96 1015.76 1015.58 1015.42 1015.30 1015.22 1015.18 1015.15 1015.14 1015.14 1015.14 1015.16 1015.19 1015.23 1015.27 1015.29 1015.28 1015.22 1015.13 1015.01 1014.86 1014.72 1014.60 1014.52 1014.48 1014.48 1014.51 1014.57 1014.64 1014.72 1014.79 1014.85 1014.92 1014.99 1015.05 1015.09 1015.09
1012.95 1013.16 1013.52 1014.01 1014.58 1015.17 1015.71 1016.13 1016.40 1016.51 1016.48 1016.34 1016.15 1015.95 1015.77 1015.63 1015.55 1015.50 1015.47 1015.46 1015.45 1015.44 1015.44 1015.45 1015.48 1015.51 1015.55 1015.56 1015.55 1015.49 1015.39 1015.25 1015.07 1014.90 1014.74 1014.63 1014.56 1014.54 1014.56 1014.61 1014.66 1014.72 1014.77 1014.80 1014.83 1014.86 1014.87 1014.88 1014.85
1013.06 1013.34 1013.77 1014.31 1014.91 1015.49 1015.98 1016.34 1016.53 1016.56 1016.46 1016.27 1016.06 1015.86 1015.71 1015.61 1015.58 1015.59 1015.62 1015.66 1015.68 1015.71 1015.73 1015.76 1015.80 1015.85 1015.90 1015.93 1015.93 1015.88 1015.77 1015.61 1015.42 1015.22 1015.03 1014.88 1014.78 1014.73 1014.73 1014.76 1014.79 1014.81 1014.82 1014.81 1014.79 1014.75 1014.72 1014.68 1014.62
1013.10 1013.46 1013.94 1014.52 1015.11 1015.66 1016.08 1016.35 1016.45 1016.38 1016.20 1015.97 1015.73 1015.54 1015.43 1015.40 1015.44 1015.53 1015.64 1015.74 1015.83 1015.91 1015.97 1016.04 1016.11 1016.19 1016.26 1016.32 1016.34 1016.30 1016.20 1016.04 1015.84 1015.62 1015.40 1015.23 1015.10 1015.02 1014.99 1014.98 1014.98 1014.96 1014.92 1014.86 1014.77 1014.68 1014.58 1014.49 1014.41
1013.09 1013.52 1014.05 1014.65 1015.23 1015.72 1016.07 1016.23 1016.22 1016.06 1015.80 1015.52 1015.27 1015.10 1015.03 1015.07 1015.20 1015.38 1015.58 1015.76 1015.92 1016.05 1016.16 1016.27 1016.37 1016.48 1016.58 1016.67 1016.71 1016.69 1016.61 1016.45 1016.24 1016.01 1015.78 1015.58 1015.42 1015.32 1015.25 1015.21 1015.17 1015.11 1015.02 1014.90 1014.75 1014.60 1014.45 1014.32 1014.21
1013.06 1013.54 1014.12 1014.72 1015.28 1015.71 1015.97 1016.04 1015.93 1015.68 1015.36 1015.04 1014.78 1014.64 1014.63 1014.74 1014.95 1015.21 1015.49 1015.75 1015.97 1016.15 1016.30 1016.43 1016.56 1016.69 1016.81 1016.92 1016.98 1016.98 1016.91 1016.76 1016.56 1016.33 1016.08 1015.86 1015.68 1015.55 1015.45 1015.37 1015.29 1015.19 1015.06 1014.89 1014.69 1014.48 1014.29 1014.12 1013.98
1013.04 1013.56 1014.16 1014.76 1015.28 1015.66 1015.85 1015.84 1015.65 1015.33 1014.96 1014.62 1014.37 1014.26 1014.30 1014.48 1014.77 1015.10 1015.45 1015.76 1016.02 1016.23 1016.40 1016.54 1016.67 1016.80 1016.92 1017.03 1017.10 1017.11 1017.06 1016.92 1016.73 1016.49 1016.25 1016.01 1015.81 1015.65 1015.51 1015.40 1015.29 1015.16 1014.99 1014.78 1014.55 1014.31 1014.07 1013.87 1013.71
1013.03 1013.57 1014.18 1014.76 1015.25 1015.58 1015.71 1015.64 1015.40 1015.04 1014.66 1014.32 1014.10 1014.03 1014.12 1014.36 1014.70 1015.09 1015.47 1015.81 1016.09 1016.31 1016.47 1016.59 1016.71 1016.82 1016.92 1017.02 1017.09 1017.10 1017.04 1016.92 1016.73 1016.50 1016.24 1016.00 1015.77 1015.58 1015.43 1015.29 1015.15 1014.99 1014.80 1014.57 1014.32 1014.05 1013.79 1013.57 1013.39
1013.02 1013.56 1014.15 1014.70 1015.16 1015.44 1015.53 1015.43 1015.17 1014.82 1014.45 1014.14 1013.96 1013.94 1014.08 1014.36 1014.74 1015.16 1015.56 1015.91 1016.19 1016.38 1016.52 1016.61 1016.69 1016.76 1016.84 1016.91 1016.95 1016.95 1016.90 1016.77 1016.58 1016.35 1016.09 1015.83 1015.59 1015.38 1015.19 1015.03 1014.87 1014.69 1014.49 1014.25 1013.99 1013.72 1013.45 1013.21 1013.01
1013.00 1013.51 1014.06 1014.57 1014.97 1015.22 1015.29 1015.19 1014.94 1014.61 1014.29 1014.04 1013.91 1013.94 1014.14 1014.46 1014.86 1015.29 1015.69 1016.03 1016.28 1016.45 1016.55 1016.60 1016.63 1016.67 1016.70 1016.73 1016.75 1016.73 1016.66 1016.53 1016.33 1016.09 1015.83 1015.56 1015.30 1015.07 1014.86 1014.68 1014.50 1014.31 1014.11 1013.87 1013.61 1013.33 1013.06 1012.80 1012.59
1012.93 1013.38 1013.87 1014.31 1014.67 1014.88 1014.94 1014.84 1014.63 1014.36 1014.11 1013.93 1013.88 1013.97 1014.21 1014.56 1014.98 1015.41 1015.80 1016.12 1016.35 1016.48 1016.55 1016.56 1016.56 1016.55 1016.54 1016.54 1016.52 1016.48 1016.39 1016.24 1016.04 1015.79 1015.52 1015.23 1014.96 1014.71 1014.49 1014.29 1014.10 1013.91 1013.69 1013.46 1013.20 1012.92 1012.64 1012.38 1012.14
1012.81 1013.18 1013.58 1013.94 1014.23 1014.40 1014.45 1014.37 1014.21 1014.02 1013.85 1013.76 1013.78 1013.94 1014.22 1014.60 1015.02 1015.45 1015.83 1016.13 1016.34 1016.46 1016.50 1016.49 1016.46 1016.42 1016.38 1016.35 1016.30 1016.23 1016.11 1015.95 1015.74 1015.48 1015.20 1014.91 1014.63 1014.37 1014.14 1013.92 1013.72 1013.52 1013.30 1013.06 1012.79 1012.52 1012.23 1011.95 1011.70
Thickness
5825 5829 5831 5825 5815 5819 5819 5826 5833 5835 5840 5849 5851 5847 5840 5833 5825 5815 5833 5843 5839 5833 5823 5811 5805 5801 5798 5795 5792 5790 5787 5784 5781 5777 5775 5772 5770 5768 5766 5764 5762 5761 5760 5758 5757 5757 5756 5755 5754
5831 5831 5826 5821 5815 5813 5815 5829 5830 5835 5844 5852 5850 5847 5840 5833 5834 5831 5834 5836 5834 5829 5820 5811 5802 5798 5795 5792 5789 5786 5784 5781 5778 5775 5772 5770 5767 5765 5764 5762 5760 5759 5758 5756 5755 5754 5753 5752 5751
5832 5830 5821 5818 5814 5812 5813 5827 5832 5842 5851 5849 5843 5844 5836 5827 5830 5831 5834 5834 5830 5824 5817 5807 5799 5795 5792 5788 5785 5783 5780 5777 5775 5772 5769 5767 5765 5763 5761 5760 5758 5757 5756 5754 5753 5751 5750 5749 5748
5829 5823 5820 5814 5811 5817 5820 5829 5838 5839 5843 5847 5844 5835 5833 5830 5831 5833 5833 5831 5826 5820 5815 5804 5796 5792 5788 5784 5781 5779 5776 5774 5771 5768 5766 5764 5762 5760 5758 5757 5755 5754 5753 5751 5750 5749 5747 5746 5745
5826 5819 5812 5812 5814 5821 5830 5835 5840 5835 5834 5840 5841 5830 5824 5827 5833 5832 5829 5827 5823 5819 5813 5801 5793 5788 5785 5781 5778 5775 5773 5770 5767 5765 5762 5760 5759 5757 5755 5754 5752 5751 5750 5748 5747 5746 5744 5743 5742
5817 5816 5806 5808 5811 5818 5828 5835 5836 5832 5833 5837 5836 5828 5819 5825 5826 5826 5826 5823 5822 5817 5811 5798 5789 5784 5781 5778 5774 5771 5769 5766 5764 5761 5759 5757 5755 5754 5752 5751 5749 5748 5746 5745 5744 5743 5742 5741 5740
5810 5806 5804 5806 5806 5810 5819 5831 5829 5825 5825 5830 5836 5826 5817 5818 5821 5823 5821 5819 5818 5813 5807 5796 5789 5782 5777 5774 5771 5768 5766 5763 5760 5758 5755 5754 5752 5750 5749 5748 5747 5745 5743 5742 5741 5739 5738 5738 5737
5812 5804 5800 5803 5801 5805 5819 5825 5828 5825 5822 5833 5835 5822 5813 5814 5818 5817 5814 5812 5809 5806 5802 5795 5789 5783 5778 5773 5768 5765 5762 5759 5756 5754 5752 5751 5749 5747 5746 5745 5744 5742 5740 5739 5738 5737 5736 5735 5734
5802 5790 5792 5799 5799 5805 5816 5815 5823 5830 5824 5823 5824 5823 5820 5817 5814 5808 5803 5800 5797 5796 5794 5792 5786 5780 5776 5773 5767 5762 5758 5755 5753 5751 5748 5747 5747 5747 5745 5744 5742 5740 5738 5737 5736 5735 5734 5733 5732
5790 5782 5792 5802 5804 5805 5809 5809 5815 5817 5814 5811 5810 5811 5813 5811 5807 5801 5796 5792 5789 5786 5786 5785 5781 5776 5773 5769 5764 5760 5757 5753 5750 5749 5746 5745 5744 5742 5743 5740 5738 5736 5735 5734 5734 5733 5732 5731 5733
5785 5781 5791 5797 5803 5804 5803 5806 5813 5810 5804 5804 5802 5801 5805 5803 5800 5796 5792 5789 5785 5783 5780 5778 5774 5770 5768 5764 5760 5756 5753 5750 5747 5745 5743 5741 5740 5739 5738 5737 5735 5733 5732 5733 5732 5731 5732 5732 5733
5777 5782 5786 5791 5799 5798 5798 5801 5801 5801 5798 5803 5804 5801 5800 5797 5795 5791 5786 5783 5781 5777 5775 5773 5769 5764 5760 5758 5754 5750 5748 5746 5744 5742 5740 5738 5736 5735 5734 5733 5733 5731 5730 5730 5730 5729 5730 5730 5729
5770 5776 5785 5790 5793 5795 5795 5795 5792 5789 5794 5798 5796 5793 5792 5792 5789 5787 5784 5780 5775 5769 5767 5765 5761 5757 5754 5750 5747 5746 5743 5741 5739 5737 5735 5733 5732 5731 5730 5728 5728 5729 5728 5727 5726 5726 5726 5725 5725
5775 5776 5780 5784 5786 5787 5784 5784 5785 5778 5788 5787 5786 5784 5785 5784 5781 5778 5774 5771 5767 5764 5761 5758 5754 5751 5748 5744 5741 5739 5737 5734 5734 5732 5731 5729 5728 5727 5726 5725 5724 5724 5723 5723 5722 5723 5722 5722 5722
5774 5769 5774 5779 5779 5781 5781 5770 5771 5774 5780 5777 5776 5775 5774 5774 5772 5769 5767 5764 5761 5758 5755 5751 5748 5745 5742 5739 5736 5734 5732 5730 5729 5727 5725 5724 5724 5723 5721 5720 5719 5719 5718 5718 5718 5719 5719 5719 5720
5771 5766 5764 5771 5774 5777 5772 5759 5761 5769 5770 5766 5766 5765 5763 5762 5763 5761 5760 5758 5755 5752 5748 5746 5745 5740 5737 5734 5731 5729 5727 5725 5724 5722 5720 5719 5718 5718 5716 5716 5716 5714 5714 5715 5715 5715 5715 5715 5716
5765 5763 5762 5763 5771 5772 5770 5758 5756 5764 5762 5758 5757 5757 5756 5753 5754 5754 5754 5751 5748 5745 5742 5740 5737 5735 5732 5728 5726 5723 5720 5719 5719 5718 5716 5714 5712 5712 5712 5712 5711 5709 5710 5710 5710 5712 5710 5709 5710
5760 5762 5760 5757 5763 5765 5762 5755 5753 5757 5757 5754 5753 5752 5749 5747 5746 5748 5747 5745 5742 5740 5737 5734 5731 5729 5726 5724 5720 5718 5715 5715 5713 5711 5708 5707 5706 5705 5705 5705 5704 5704 5704 5704 5703 5702 5703 5703 5704
5763 5759 5755 5754 5759 5757 5753 5747 5745 5748 5748 5747 5746 5745 5743 5741 5743 5743 5741 5739 5736 5733 5730 5728 5725 5722 5719 5717 5715 5712 5711 5709 5708 5706 5702 5700 5699 5698 5697 5698 5697 5696 5698 5696 5697 5697 5697 5697 5699
5761 5756 5755 5753 5755 5753 5747 5740 5742 5743 5741 5742 5739 5737 5737 5736 5735 5735 5734 5732 5730 5726 5723 5720 5718 5717 5715 5712 5708 5706 5704 5703 5702 5700 5696 5693 5692 5690 5691 5689 5690 5690 5688 5688 5688 5687 5688 5691 5692
5761 5759 5758 5750 5748 5751 5744 5733 5735 5737 5739 5738 5736 5734 5734 5733 5731 5731 5730 5728 5726 5722 5720 5719 5715 5712 5709 5706 5705 5701 5697 5696 5696 5693 5691 5688 5685 5683 5681 5681 5681 5680 5681 5682 5680 5680 5679 5681 5684
5758 5767 5761 5752 5746 5742 5742 5729 5732 5736 5732 5732 5732 5732 5732 5733 5732 5730 5728 5726 5723 5721 5718 5714 5710 5707 5703 5700 5698 5694 5690 5688 5687 5684 5684 5680 5677 5676 5674 5672 5672 5671 5672 5672 5672 5675 5673 5672 5674
5761 5766 5761 5756 5751 5745 5744 5735 5732 5736 5729 5731 5733 5734 5733 5733 5731 5729 5728 5725 5723 5720 5716 5712 5706 5701 5698 5694 5691 5687 5686 5683 5682 5678 5675 5671 5672 5668 5667 5665 5663 5663 5663 5664 5662 5663 5663 5665 5666
5765 5760 5755 5755 5755 5733 5737 5735 5727 5735 5734 5735 5736 5736 5734 5733 5732 5729 5728 5724 5720 5718 5714 5709 5702 5697 5693 5690 5686 5681 5677 5674 5671 5668 5667 5666 5666 5663 5661 5657 5655 5654 5655 5654 5653 5653 5655 5655 5656
5763 5752 5739 5733 5733 5730 5738 5735 5732 5742 5744 5741 5738 5738 5737 5735 5732 5728 5725 5721 5717 5713 5709 5705 5698 5693 5689 5685 5680 5676 5671 5667 5664 5662 5661 5658 5658 5656 5653 5650 5646 5646 5645 5645 5645 5645 5646 5647 5647
5761 5756 5737 5725 5729 5735 5733 5731 5739 5747 5747 5746 5743 5741 5738 5735 5733 5728 5725 5720 5716 5711 5706 5701 5694 5688 5684 5679 5674 5670 5666 5665 5663 5658 5654 5652 5649 5648 5644 5640 5638 5637 5636 5636 5637 5637 5638 5639 5640
5758 5757 5762 5749 5743 5736 5737 5738 5742 5744 5743 5743 5741 5738 5736 5734 5731 5727 5724 5719 5714 5708 5703 5697 5691 5684 5679 5675 5670 5665 5661 5657 5654 5650 5647 5646 5641 5639 5636 5632 5630 5629 5628 5627 5627 5628 5629 5630 5631
5768 5762 5753 5746 5728 5729 5732 5734 5738 5737 5739 5741 5740 5738 5736 5733 5730 5725 5721 5715 5710 5705 5699 5694 5687 5680 5675 5671 5666 5663 5657 5653 5648 5644 5639 5635 5632 5629 5626 5624 5622 5621 5619 5618 5618 5619 5620 5620 5621
5756 5755 5754 5752 5747 5736 5728 5735 5754 5749 5748 5745 5743 5741 5737 5733 5729 5724 5718 5713 5707 5702 5697 5690 5684 5678 5672 5666 5661 5656 5652 5647 5642 5638 5634 5629 5625 5622 5619 5616 5614 5612 5611 5610 5609 5609 5610 5610 5612
5764 5759 5755 5741 5735 5739 5740 5737 5757 5755 5753 5749 5745 5741 5737 5733 5728 5723 5716 5710 5704 5698 5693 5687 5681 5675 5669 5663 5657 5652 5647 5642 5637 5633 5628 5623 5619 5615 5612 5609 5606 5604 5603 5601 5599 5599 5601 5601 5603